Content
SEND FEEDBACK

Daily
Averages
Monthly
Summary
United States of America

INARAJAN, GUAM


Home > North America > United States > Guam
Elevation: 85 meters     Latitude: 13 18N     Longitude: 144 44E

WEATHER
 
SELECT A DAY
Number of Records: 342,554;   Date Range: 1/1/95 - 9/16/14
 
SHARE

PRINT THIS DATA

[ ← Previous Day ]
WEATHER ALMANAC - 17 JANUARY, 2014
[ Next Day → ]
[ °F ]   °C
Weather ElementAverageHighLow
Temperature25.1 °C27.2 °C (1:58 pm)22 °C (1:03 pm)
Dewpoint23.8 °C25 °C (9:47 am)21 °C (1:03 pm)
Humidity92.7 %100 % (9:47 am)76 % (1:58 pm)
Barometer1010.2 hPa1012.5 hPa (9:42 am)1008.1 hPa (1:58 pm)
Wind Speed14.8 km/h31.5 km/h (2:38 pm)
Wind Gust40.7 km/h (12:43 pm)
Weather ElementAverage
Visibility15 km
Wind DirectionE (85.8 °)

Weather ElementTotal
Precipitation1.78 mm
Cooling Degree Days6.3 (Base 18.3)
Growing Degree Days14.6 (Base 10)
Averaged from 65 records on 17 January, 2014
WEATHER CONDITIONS BREAKOUT
WIND DIRECTION BREAKOUT
WEATHER BY HOUR - 17 JANUARY, 2014
[ °F ]   °C
Local TimeTemperatureDewpointHumidityBarometerVisibilityWind DirectionWind SpeedGust SpeedPrecipitationEventsConditions
1:58 AM24.8 °C24 °C95 %1009.8 hPa16.1 kmNNE (30°)1.9 km/hPartly Cloudy
2:58 AM24.3 °C24 °C98 %1009.5 hPa16.1 kmCalmClear
3:58 AM24.7 °C23.8 °C95 %1009.5 hPa16.1 kmENE (60°)11.1 km/hScattered Clouds
4:58 AM24.7 °C23.8 °C95 %1009.5 hPa16.1 kmENE (60°)9.3 km/hScattered Clouds
5:03 AM25 °C24 °C94 %1010.5 hPa16.1 kmEast (80°)20.4 km/hMostly Cloudy
5:08 AM25 °C24 °C94 %1010.5 hPa16.1 kmNE (50°)14.8 km/hMostly Cloudy
5:18 AM25 °C24 °C94 %1010.5 hPa16.1 kmENE (60°)14.8 km/hMostly Cloudy
5:28 AM25 °C24 °C94 %1010.5 hPa16.1 kmENE (60°)13 km/hMostly Cloudy
5:48 AM25 °C24 °C94 %1010.8 hPa16.1 kmENE (70°)16.7 km/hScattered Clouds
5:58 AM24.5 °C23.8 °C96 %1009.8 hPa16.1 kmENE (60°)13 km/hScattered Clouds
6:58 AM24.2 °C23.5 °C96 %1010.2 hPa16.1 kmENE (60°)11.1 km/hClear
7:58 AM25.8 °C23.9 °C89 %1011.2 hPa16.1 kmENE (60°)11.1 km/hClear
8:58 AM26.8 °C23.3 °C81 %1011.5 hPa16.1 kmENE (60°)18.5 km/hClear
9:42 AM26 °C24 °C89 %1012.5 hPa6.4 kmEast (80°)24.1 km/hRainHeavy Rain
9:47 AM25 °C25 °C100 %1012.5 hPa2.9 kmENE (70°)20.4 km/hRainRain
9:52 AM24 °C24 °C100 %1012.5 hPa3.2 kmENE (60°)22.2 km/hRainLight Rain
9:57 AM24 °C24 °C100 %1012.5 hPa9.7 kmENE (70°)24.1 km/hRainLight Rain
9:58 AM24.3 °C24.1 °C99 %1011.5 hPa9.7 kmENE (70°)22.2 km/h1.52 mmRainLight Rain
10:12 AM25 °C23 °C89 %1012.5 hPa12.9 kmENE (60°)11.1 km/hMostly Cloudy
10:17 AM25 °C23 °C89 %1012.5 hPa16.1 kmENE (60°)9.3 km/hMostly Cloudy
10:58 AM27 °C24.3 °C85 %1011.2 hPa16.1 kmEast (90°)13 km/h0.25 mmMostly Cloudy
11:38 AM27 °C24 °C84 %1011.2 hPa16.1 kmENE (70°)20.4 km/hMostly Cloudy
11:58 AM24.8 °C24.2 °C96 %1010.2 hPa16.1 kmEast (100°)25.9 km/h31.5 km/hMostly Cloudy
12:13 PM24 °C22 °C89 %1010.8 hPa16.1 kmESE (120°)13 km/hMostly Cloudy
12:43 PM23 °C22 °C94 %1010.5 hPa16.1 kmESE (110°)24.1 km/h40.7 km/hOvercast
12:53 PM24 °C23 °C94 %1010.2 hPa16.1 kmESE (110°)20.4 km/h37 km/hOvercast
12:58 PM23.2 °C22.4 °C95 %1009.5 hPa16.1 kmESE (110°)18.5 km/h33.3 km/hOvercast
1:03 PM22 °C21 °C94 %1010.2 hPa16.1 kmESE (120°)25.9 km/h31.5 km/hOvercast
1:18 PM25 °C23 °C89 %1009.8 hPa16.1 kmESE (110°)11.1 km/hOvercast
1:58 PM27.2 °C22.7 °C76 %1008.1 hPa16.1 kmEast (100°)13 km/hScattered Clouds
2:38 PM27 °C25 °C89 %1009.1 hPa16.1 kmEast (80°)31.5 km/h37 km/hMostly Cloudy
2:43 PM26 °C23 °C83 %1009.1 hPa16.1 kmEast (100°)27.8 km/h37 km/hMostly Cloudy
2:53 PM25 °C24 °C94 %1009.1 hPa16.1 kmESE (110°)18.5 km/hMostly Cloudy
2:58 PM25.3 °C23.9 °C92 %1008.1 hPa16.1 kmESE (110°)14.8 km/hMostly Cloudy
3:18 PM26 °C24 °C89 %1009.1 hPa16.1 kmEast (90°)16.7 km/hOvercast
3:23 PM26 °C24 °C89 %1009.1 hPa16.1 kmEast (80°)14.8 km/h25.9 km/hOvercast
3:27 PM26 °C24 °C89 %1009.1 hPa9.7 kmEast (90°)13 km/h25.9 km/hLight Drizzle
3:32 PM25 °C24 °C94 %1009.1 hPa9.7 kmEast (90°)11.1 km/hLight Drizzle
3:36 PM25 °C25 °C100 %1009.1 hPa11.3 kmENE (70°)7.4 km/hOvercast
3:41 PM25 °C24 °C94 %1009.1 hPa16.1 kmEast (90°)13 km/hMostly Cloudy
3:58 PM26.3 °C23.9 °C87 %1008.1 hPa16.1 kmEast (90°)13 km/h0 mmScattered Clouds
4:28 PM25 °C24 °C94 %1009.5 hPa16.1 kmESE (120°)16.7 km/h35.2 km/hMostly Cloudy
4:33 PM25 °C24 °C94 %1009.5 hPa16.1 kmESE (120°)13 km/hMostly Cloudy
4:53 PM25 °C24 °C94 %1009.5 hPa16.1 kmEast (100°)3.7 km/hMostly Cloudy
4:58 PM24.5 °C24 °C97 %1008.5 hPa16.1 kmSE (140°)9.3 km/hMostly Cloudy
5:15 PM25 °C24 °C94 %1009.8 hPa16.1 kmESE (120°)9.3 km/hRainLight Rain
5:20 PM25 °C24 °C94 %1009.8 hPa16.1 kmESE (120°)9.3 km/hMostly Cloudy
5:30 PM25 °C25 °C100 %1009.8 hPa16.1 kmSE (130°)9.3 km/hMostly Cloudy
5:35 PM25 °C24 °C94 %1009.8 hPa16.1 kmESE (120°)7.4 km/hMostly Cloudy
5:40 PM25 °C25 °C100 %1009.8 hPa16.1 kmESE (110°)9.3 km/hMostly Cloudy
5:55 PM25 °C25 °C100 %1009.5 hPa16.1 kmESE (110°)7.4 km/hMostly Cloudy
5:58 PM25 °C25 °C100 %1008.5 hPa16.1 kmSE (130°)11.1 km/h0 mmMostly Cloudy
6:08 PM25 °C24 °C94 %1009.8 hPa16.1 kmEast (100°)3.7 km/hMostly Cloudy
6:58 PM25 °C23.9 °C94 %1009.5 hPa16.1 kmEast (80°)11.1 km/hClear
7:38 PM26 °C24 °C89 %1010.5 hPa16.1 kmEast (90°)22.2 km/hMostly Cloudy
7:39 PM26 °C24 °C89 %1010.5 hPa16.1 kmEast (90°)20.4 km/hLight Drizzle
7:49 PM25 °C24 °C94 %1010.8 hPa14.5 kmENE (60°)13 km/hLight Drizzle
7:52 PM24 °C23 °C94 %1010.8 hPa16.1 kmENE (60°)11.1 km/hOvercast
7:58 PM24.2 °C23.1 °C94 %1009.8 hPa16.1 kmENE (70°)9.3 km/h0 mmOvercast
8:58 PM25.4 °C24.1 °C92 %1010.2 hPa16.1 kmENE (70°)24.1 km/h31.5 km/hScattered Clouds
9:58 PM25.4 °C24 °C92 %1010.2 hPa16.1 kmEast (80°)16.7 km/hMostly Cloudy
10:13 PM26 °C24 °C89 %1011.2 hPa16.1 kmENE (70°)18.5 km/hMostly Cloudy
10:18 PM26 °C24 °C89 %1011.2 hPa16.1 kmEast (80°)18.5 km/hOvercast
10:58 PM25.7 °C23.3 °C87 %1010.2 hPa16.1 kmEast (90°)13 km/h27.8 km/hOvercast
11:58 PM25.3 °C23.4 °C89 %1010.2 hPa16.1 kmEast (100°)16.7 km/hMostly Cloudy
Hourly data recorded from PGUA, located 0 kilometers away from Inarajan, Guam







STORIES FROM OUR PARTNERS